Weather History for Ypsilanti, MI

Change the Weather History Date:

Wednesday, April 24, 2013

  Actual Average Record
Temperature  
Mean Temperature 47 °F -  
Max Temperature 57 °F 62 °F 83 °F (1990)
Min Temperature 36 °F 41 °F 28 °F (1971)
Degree Days  
Heating Degree Days 18    
Moisture  
Dew Point 39 °F    
Average Humidity 82    
Maximum Humidity 88    
Minimum Humidity 60    
Precipitation  
Precipitation 0.53 in - - ()
Sea Level Pressure  
Sea Level Pressure 29.86 in    
Wind  
Wind Speed 10 mph (NW)    
Max Wind Speed 17 mph    
Max Gust Speed 24 mph    
Visibility 6 miles    
Events Rain , Snow    
Averages and records for this station are not official NWS values.
T = Trace of Precipitation, MM = Missing Value Source: NWS Daily Summary

Daily Weather History Graph

Daily Weather History Graph

Search for Another Location

Airport:

Trip Planner

Search our weather history database for the weather conditions in past years. The results will help you decide how hot, cold, wet, or windy it might be!

Date:

Astronomy

Apr. 24, 2013 Rise Set
Actual Time 6:39 AM EDT 8:25 PM EDT
Civil Twilight 6:09 AM EDT 8:55 PM EDT
Nautical Twilight 5:32 AM EDT 9:32 PM EDT
Astronomical Twilight 4:53 AM EDT 10:11 PM EDT
Moon 7:27 PM EDT (4/24) 5:43 AM EDT (4/24)
Length of Visible Light 14h 46m
Length of Day
13h 46m
Waxing Gibbous, 98% of the Moon is Illuminated
Apr 24
Waxing Gibbous
Apr 25
Full
May 2
Last Quarter
May 9
New
May 18
First Quarter

Hourly Weather History & Observations

Time (EDT) Temp. Windchill Dew Point Humidity Pressure Visibility Wind Dir Wind Speed Gust Speed Precip Events Conditions
12:12 AM 57.2 °F - 53.6 °F 88% 29.80 in 3.0 mi SE 5.8 mph - 0.02 in Rain Light Rain
12:27 AM 57.2 °F - 53.6 °F 88% 29.79 in 3.0 mi SE 6.9 mph - 0.03 in Rain Light Rain
12:39 AM 57.2 °F - 53.6 °F 88% 29.80 in 3.0 mi SSE 5.8 mph - 0.04 in Rain Rain
12:46 AM 57.2 °F - 53.6 °F 88% 29.80 in 2.0 mi SSE 5.8 mph - 0.06 in Rain Rain
12:53 AM 57.9 °F - 54.0 °F 87% 29.79 in 1.8 mi SSE 6.9 mph - 0.11 in Rain Heavy Rain
1:18 AM 57.2 °F - 53.6 °F 88% 29.79 in 3.0 mi SSE 3.5 mph - 0.11 in Rain Light Rain
1:25 AM 57.2 °F - 53.6 °F 88% 29.79 in 3.0 mi SSE 6.9 mph - 0.12 in Rain Light Rain
1:34 AM 57.2 °F - 53.6 °F 88% 29.78 in 3.0 mi South 8.1 mph - 0.13 in Rain Light Rain
1:53 AM 57.9 °F - 54.0 °F 87% 29.75 in 4.0 mi SSE 6.9 mph - 0.13 in Rain Light Rain
2:03 AM 57.2 °F - 53.6 °F 88% 29.76 in 3.0 mi SSE 6.9 mph - 0.00 in Rain Light Rain
2:53 AM 57.9 °F - 54.0 °F 87% 29.72 in 3.0 mi SSW 5.8 mph - 0.02 in Rain Light Rain
3:20 AM 53.6 °F - 48.2 °F 82% 29.73 in 5.0 mi NW 13.8 mph 17.3 mph 0.02 in Rain Rain
3:34 AM 51.8 °F - 48.2 °F 88% 29.74 in 9.0 mi NW 16.1 mph - 0.03 in Rain Light Rain
3:53 AM 48.9 °F - 44.1 °F 83% 29.73 in 10.0 mi NNW 16.1 mph 24.2 mph 0.04 in Rain Light Rain
4:53 AM 48.0 °F - 42.1 °F 80% 29.75 in 7.0 mi NNW 11.5 mph - 0.00 in Rain Light Rain
6:04 AM 44.6 °F 38.4 °F 39.2 °F 81% 29.80 in 4.0 mi North 12.7 mph - 0.00 in Rain Light Rain
6:18 AM 44.6 °F 38.1 °F 39.2 °F 81% 29.80 in 4.0 mi North 13.8 mph 20.7 mph 0.00 in Rain Light Rain
6:25 AM 42.8 °F 36.2 °F 37.4 °F 81% 29.80 in 5.0 mi North 12.7 mph - 0.01 in Rain Light Rain
6:53 AM 42.1 °F 33.9 °F 37.0 °F 82% 29.80 in 5.0 mi NNW 17.3 mph - 0.01 in Rain Light Rain
7:18 AM 42.8 °F 36.6 °F 37.4 °F 81% 29.81 in 8.0 mi North 11.5 mph - 0.00 in   Overcast
7:32 AM 42.8 °F 36.6 °F 37.4 °F 81% 29.81 in 5.0 mi NNW 11.5 mph - 0.00 in   Haze
7:53 AM 42.1 °F 35.2 °F 36.0 °F 79% 29.83 in 6.0 mi North 12.7 mph - 0.00 in Rain Light Rain
8:06 AM 41.0 °F 34.7 °F 37.4 °F 87% 29.84 in 2.5 mi NNW 10.4 mph - 0.01 in Rain Light Rain
8:20 AM 41.0 °F 33.5 °F 35.6 °F 81% 29.83 in 3.0 mi NNW 13.8 mph - 0.01 in Rain Light Rain
8:53 AM 39.9 °F 32.9 °F 35.1 °F 83% 29.83 in 3.0 mi NNW 11.5 mph 18.4 mph 0.02 in Rain Light Rain
9:53 AM 39.0 °F 31.8 °F 35.1 °F 86% 29.83 in 5.0 mi NNW 11.5 mph - 0.00 in   Overcast
10:06 AM 39.2 °F 32.5 °F 35.6 °F 87% 29.82 in 3.0 mi NNW 10.4 mph - 0.00 in Rain Light Rain
10:18 AM 39.2 °F 32.5 °F 35.6 °F 87% 29.83 in 2.5 mi NNW 10.4 mph - 0.01 in Rain Light Rain
10:35 AM 39.2 °F 33.0 °F 35.6 °F 87% 29.82 in 3.0 mi NNW 9.2 mph - 0.03 in Rain Light Rain
10:53 AM 39.0 °F 31.8 °F 34.0 °F 82% 29.83 in 6.0 mi NW 11.5 mph - 0.05 in Rain Light Rain
11:03 AM 39.2 °F 31.6 °F 33.8 °F 81% 29.84 in 9.0 mi NNW 12.7 mph - 0.00 in Rain Light Rain
11:24 AM 39.2 °F 32.0 °F 33.8 °F 81% 29.85 in 10.0 mi NW 11.5 mph - 0.01 in Rain Light Rain
11:38 AM 37.4 °F 30.8 °F 33.8 °F 87% 29.86 in 5.0 mi NW 9.2 mph - 0.02 in Rain Light Rain
11:48 AM 37.4 °F 31.4 °F 33.8 °F 87% 29.85 in 4.0 mi NW 8.1 mph - 0.03 in Rain Rain
11:53 AM 37.9 °F 31.5 °F 34.0 °F 86% 29.86 in 5.0 mi NW 9.2 mph - 0.03 in Rain Light Rain
12:10 PM 37.4 °F 30.3 °F 33.8 °F 87% 29.86 in 3.0 mi NW 10.4 mph - 0.02 in Snow Light Snow
12:22 PM 37.4 °F 30.8 °F 33.8 °F 87% 29.85 in 2.5 mi NW 9.2 mph - 0.03 in Snow Light Snow
12:33 PM 37.4 °F 29.8 °F 33.8 °F 87% 29.84 in 3.0 mi NNW 11.5 mph - 0.03 in Snow Light Snow
12:53 PM 39.0 °F 30.3 °F 34.0 °F 82% 29.85 in 9.0 mi NW 16.1 mph 20.7 mph 0.04 in Rain Light Rain
1:05 PM 39.2 °F 31.2 °F 33.8 °F 81% 29.86 in 9.0 mi NW 13.8 mph - 0.00 in Rain Light Rain
1:53 PM 39.0 °F 30.6 °F 33.1 °F 79% 29.88 in 10.0 mi NW 15.0 mph - 0.01 in Rain Light Rain
2:17 PM 39.2 °F 30.5 °F 33.8 °F 81% 29.89 in 9.0 mi NW 16.1 mph 24.2 mph 0.01 in Rain Light Rain
2:24 PM 39.2 °F 30.5 °F 33.8 °F 81% 29.89 in 6.0 mi NW 16.1 mph 24.2 mph 0.01 in Rain Light Rain
2:53 PM 39.0 °F 31.0 °F 34.0 °F 82% 29.90 in 7.0 mi NW 13.8 mph - 0.02 in Rain Light Rain
3:01 PM 39.2 °F 30.8 °F 33.8 °F 81% 29.90 in 8.0 mi NW 15.0 mph - 0.00 in Rain Light Rain
3:53 PM 39.9 °F 31.8 °F 35.1 °F 83% 29.93 in 10.0 mi WNW 15.0 mph - 0.04 in Rain Light Rain
4:25 PM 41.0 °F 33.5 °F 35.6 °F 81% 29.94 in 10.0 mi West 13.8 mph - 0.00 in Rain Light Rain
4:38 PM 41.0 °F 33.9 °F 35.6 °F 81% 29.95 in 9.0 mi West 12.7 mph - 0.00 in Rain Light Rain
4:53 PM 41.0 °F 33.1 °F 35.1 °F 79% 29.96 in 10.0 mi West 15.0 mph - 0.00 in Rain Light Rain
5:09 PM 42.8 °F 35.8 °F 35.6 °F 76% 29.96 in 10.0 mi West 13.8 mph - 0.01 in   Overcast
5:53 PM 44.1 °F 37.4 °F 34.0 °F 68% 29.98 in 10.0 mi WNW 13.8 mph 21.9 mph 0.01 in   Overcast
6:53 PM 44.1 °F 38.1 °F 33.1 °F 65% 30.01 in 10.0 mi West 11.5 mph - N/A   Mostly Cloudy
7:53 PM 44.1 °F 37.4 °F 30.9 °F 60% 30.03 in 10.0 mi West 13.8 mph - N/A   Mostly Cloudy
8:53 PM 41.0 °F 35.2 °F 30.0 °F 65% 30.07 in 10.0 mi WSW 9.2 mph - N/A   Clear
9:53 PM 39.0 °F 32.8 °F 28.9 °F 67% 30.11 in 10.0 mi SW 9.2 mph - N/A   Clear
10:53 PM 37.9 °F 32.1 °F 27.0 °F 65% 30.14 in 10.0 mi SW 8.1 mph - N/A   Clear
11:53 PM 36.0 °F 29.0 °F 27.0 °F 70% 30.16 in 10.0 mi SW 9.2 mph - N/A   Clear